| time (UTC) | temp F | wind direction | speed knots | gust knots | rain 1hr in | rain 24hr in | rain mn in | humidity % | barometer mb |
| 20260503010003 | 52 | 322 | 2.6 | 4.3 | 0.08 | 0.25 | 0.17 | 76 | 1011.0 |
| 20260503005424 | 52 | 318 | 2.6 | 3.5 | 0.09 | 0.24 | 0.17 | 76 | 1011.0 |
| 20260503004503 | 52 | 309 | 2.6 | 6.1 | 0.09 | 0.23 | 0.15 | 76 | 1011.1 |
| 20260503003603 | 52 | 322 | 1.7 | 4.3 | 0.08 | 0.21 | 0.13 | 76 | 1011.1 |
| 20260503002703 | 52 | 329 | 1.7 | 4.3 | 0.10 | 0.21 | 0.13 | 75 | 1011.2 |
| 20260503001803 | 52 | 335 | 2.6 | 5.2 | 0.10 | 0.20 | 0.13 | 75 | 1011.3 |
| 20260503000903 | 53 | 324 | 1.7 | 4.3 | 0.10 | 0.19 | 0.11 | 75 | 1011.5 |
| 20260503000003 | 53 | 313 | 1.7 | 4.3 | 0.09 | 0.17 | 0.09 | 75 | 1011.4 |
| 20260502235424 | 53 | 322 | 1.7 | 4.3 | 0.09 | 0.16 | 0.08 | 75 | 1011.5 |
| 20260502234503 | 53 | 347 | 1.7 | 3.5 | 0.08 | 0.14 | 0.06 | 75 | 1011.6 |
| 20260502233603 | 53 | 347 | 2.6 | 4.3 | 0.08 | 0.13 | 0.06 | 75 | 1011.6 |
| 20260502232703 | 53 | 334 | 1.7 | 3.5 | 0.06 | 0.11 | 0.03 | 74 | 1011.7 |
| 20260502231803 | 54 | 2 | 1.7 | 3.5 | 0.06 | 0.10 | 0.02 | 73 | 1011.7 |
| 20260502230903 | 54 | 347 | 1.7 | 3.5 | 0.05 | 0.09 | 0.01 | 74 | 1011.7 |
| 20260502230004 | 54 | 344 | 0.9 | 3.5 | 0.05 | 0.08 | 0.00 | 74 | 1011.7 |
| 20260502225403 | 54 | 341 | 1.7 | 3.5 | 0.04 | 0.07 | 0.07 | 74 | 1011.8 |
| 20260502224503 | 54 | 337 | 2.6 | 4.3 | 0.03 | 0.06 | 0.06 | 74 | 1011.8 |
| 20260502223603 | 54 | 352 | 2.6 | 4.3 | 0.03 | 0.06 | 0.06 | 75 | 1011.8 |
| 20260502222703 | 54 | 1 | 1.7 | 4.3 | 0.02 | 0.05 | 0.05 | 75 | 1011.8 |
| 20260502221803 | 54 | 5 | 1.7 | 4.3 | 0.03 | 0.05 | 0.05 | 75 | 1011.9 |
| 20260502220924 | 54 | 14 | 1.7 | 5.2 | 0.02 | 0.04 | 0.04 | 76 | 1012.0 |
| 20260502220003 | 55 | 354 | 0.9 | 3.5 | 0.02 | 0.03 | 0.03 | 76 | 1012.1 |
| 20260502215403 | 55 | 347 | 1.7 | 3.5 | 0.02 | 0.03 | 0.03 | 76 | 1012.1 |
| 20260502214503 | 55 | 343 | 0.9 | 3.5 | 0.02 | 0.03 | 0.03 | 77 | 1012.1 |
| 20260502213603 | 55 | 336 | 1.7 | 4.3 | 0.02 | 0.02 | 0.02 | 77 | 1012.2 |
| 20260502212703 | 55 | 333 | 2.6 | 4.3 | 0.02 | 0.02 | 0.02 | 78 | 1012.1 |
| 20260502211803 | 55 | 336 | 1.7 | 3.5 | 0.01 | 0.02 | 0.02 | 78 | 1012.2 |
| 20260502210903 | 55 | 333 | 2.6 | 3.5 | 0.01 | 0.02 | 0.02 | 78 | 1012.1 |
| 20260502210003 | 56 | 319 | 2.6 | 5.2 | 0.01 | 0.02 | 0.02 | 78 | 1012.2 |
| 20260502205403 | 56 | 310 | 2.6 | 7.0 | 0.01 | 0.02 | 0.02 | 78 | 1012.3 |
| 20260502204524 | 56 | 313 | 2.6 | 7.0 | 0.00 | 0.01 | 0.01 | 78 | 1012.3 |
| 20260502203603 | 56 | 311 | 2.6 | 4.3 | 0.00 | 0.01 | 0.01 | 78 | 1012.3 |
| 20260502202703 | 56 | 318 | 3.5 | 7.0 | 0.00 | 0.01 | 0.01 | 78 | 1012.3 |
| 20260502201803 | 56 | 320 | 2.6 | 4.3 | 0.00 | 0.01 | 0.01 | 78 | 1012.5 |
| 20260502200924 | 56 | 333 | 3.5 | 7.8 | 0.00 | 0.01 | 0.01 | 77 | 1012.4 |
| 20260502200024 | 56 | 330 | 4.3 | 7.8 | 0.00 | 0.01 | 0.01 | 78 | 1012.4 |
| 20260502195403 | 56 | 332 | 3.5 | 7.8 | 0.00 | 0.01 | 0.01 | 78 | 1012.4 |
| 20260502194503 | 56 | 337 | 3.5 | 7.0 | 0.00 | 0.01 | 0.01 | 78 | 1012.4 |
| 20260502193603 | 56 | 324 | 3.5 | 6.1 | 0.00 | 0.01 | 0.01 | 78 | 1012.3 |
| 20260502192703 | 56 | 314 | 3.5 | 6.1 | 0.00 | 0.01 | 0.01 | 78 | 1012.2 |
| 20260502191824 | 57 | 324 | 3.5 | 7.0 | 0.00 | 0.01 | 0.01 | 76 | 1012.1 |
| 20260502190924 | 57 | 331 | 3.5 | 7.0 | 0.00 | 0.01 | 0.01 | 78 | 1012.3 |
| 20260502190004 | 57 | 319 | 4.3 | 7.8 | 0.00 | 0.01 | 0.01 | 78 | 1012.2 |
| 20260502185424 | 57 | 323 | 4.3 | 7.8 | 0.00 | 0.01 | 0.01 | 78 | 1012.2 |
| 20260502184503 | 57 | 324 | 4.3 | 7.8 | 0.00 | 0.01 | 0.01 | 78 | 1012.5 |
| 20260502183603 | 57 | 323 | 4.3 | 8.7 | 0.00 | 0.01 | 0.01 | 78 | 1012.4 |
| 20260502182724 | 57 | 336 | 3.5 | 7.0 | 0.00 | 0.01 | 0.01 | 78 | 1012.5 |
| 20260502181803 | 58 | 342 | 3.5 | 7.0 | 0.00 | 0.01 | 0.01 | 78 | 1012.6 |
| 20260502180903 | 59 | 346 | 3.5 | 7.0 | 0.00 | 0.02 | 0.01 | 77 | 1012.7 |
| 20260502163603 | 60 | 5 | 3.5 | 7.0 | 0.00 | 0.06 | 0.01 | 77 | 1013.2 |
| 20260502162703 | 60 | 3 | 2.6 | 7.0 | 0.00 | 0.06 | 0.01 | 77 | 1013.3 |
| 20260502161803 | 61 | 324 | 2.6 | 7.0 | 0.00 | 0.06 | 0.01 | 77 | 1013.3 |
| 20260502160903 | 60 | 294 | 3.5 | 7.0 | 0.00 | 0.06 | 0.01 | 77 | 1013.4 |
| 20260502151803 | 62 | 261 | 3.5 | 7.8 | 0.00 | 0.06 | 0.01 | 75 | 1014.0 |
| 20260502150903 | 62 | 274 | 3.5 | 7.0 | 0.00 | 0.06 | 0.01 | 76 | 1014.2 |
| 20260502123603 | 60 | 221 | 3.5 | 6.1 | 0.00 | 0.08 | 0.01 | 74 | 1015.5 |
| 20260502122724 | 61 | 214 | 3.5 | 7.0 | 0.00 | 0.08 | 0.01 | 74 | 1015.7 |
| 20260502121824 | 62 | 214 | 3.5 | 6.1 | 0.00 | 0.08 | 0.01 | 74 | 1015.9 |
| 20260502120903 | 62 | 204 | 2.6 | 5.2 | 0.00 | 0.08 | 0.01 | 73 | 1016.0 |
| 20260502115403 | 61 | 200 | 2.6 | 6.1 | 0.00 | 0.08 | 0.01 | 73 | 1016.0 |
| 20260502114503 | 61 | 186 | 2.6 | 6.1 | 0.00 | 0.08 | 0.01 | 73 | 1016.2 |
| 20260502113603 | 62 | 165 | 2.6 | 6.1 | 0.00 | 0.08 | 0.01 | 72 | 1016.1 |
| 20260502112703 | 62 | 167 | 2.6 | 7.8 | 0.00 | 0.08 | 0.01 | 72 | 1016.1 |
| 20260502111803 | 62 | 134 | 3.5 | 7.0 | 0.00 | 0.08 | 0.01 | 72 | 1016.1 |
| 20260502110924 | 61 | 156 | 2.6 | 7.0 | 0.00 | 0.08 | 0.01 | 72 | 1016.1 |
| 20260502110003 | 61 | 177 | 3.5 | 7.8 | 0.00 | 0.08 | 0.01 | 72 | 1016.0 |
| 20260502105403 | 61 | 171 | 4.3 | 9.6 | 0.00 | 0.08 | 0.01 | 71 | 1016.1 |
| 20260502104503 | 62 | 180 | 2.6 | 9.6 | 0.00 | 0.08 | 0.01 | 70 | 1016.2 |
| 20260502103603 | 61 | 177 | 3.5 | 9.6 | 0.00 | 0.08 | 0.01 | 70 | 1016.2 |
| 20260502102703 | 61 | 175 | 3.5 | 7.8 | 0.00 | 0.08 | 0.01 | 71 | 1016.4 |
| 20260502101803 | 60 | 141 | 3.5 | 7.8 | 0.00 | 0.08 | 0.01 | 71 | 1016.5 |
| 20260502100903 | 60 | 165 | 3.5 | 7.8 | 0.00 | 0.08 | 0.01 | 70 | 1016.3 |
| 20260502090903 | 56 | 158 | 3.5 | 8.7 | 0.00 | 0.08 | 0.01 | 76 | 1016.7 |
| 20260502070903 | 53 | 159 | 2.6 | 6.1 | 0.00 | 0.08 | 0.01 | 78 | 1016.6 |
| 20260502070003 | 52 | 164 | 3.5 | 6.1 | 0.00 | 0.08 | 0.01 | 79 | 1016.7 |
| 20260502065403 | 52 | 150 | 3.5 | 7.8 | 0.00 | 0.08 | 0.01 | 78 | 1016.7 |
| 20260502064524 | 52 | 161 | 2.6 | 7.8 | 0.00 | 0.08 | 0.01 | 78 | 1016.7 |
| 20260502063603 | 52 | 187 | 2.6 | 5.2 | 0.00 | 0.08 | 0.01 | 78 | 1016.6 |
| 20260502062724 | 52 | 177 | 3.5 | 6.1 | 0.00 | 0.08 | 0.01 | 78 | 1016.6 |
| 20260502061803 | 52 | 178 | 2.6 | 6.1 | 0.00 | 0.08 | 0.01 | 78 | 1016.5 |
| 20260502060903 | 52 | 170 | 2.6 | 6.1 | 0.00 | 0.08 | 0.01 | 78 | 1016.6 |
| 20260502060024 | 52 | 186 | 2.6 | 6.1 | 0.00 | 0.08 | 0.01 | 78 | 1016.6 |
| 20260502055403 | 51 | 193 | 3.5 | 6.1 | 0.00 | 0.08 | 0.01 | 79 | 1016.5 |
| 20260502054503 | 51 | 191 | 2.6 | 6.1 | 0.00 | 0.08 | 0.01 | 79 | 1016.4 |
| 20260502053624 | 51 | 192 | 2.6 | 7.8 | 0.00 | 0.08 | 0.01 | 78 | 1016.5 |
| 20260502052703 | 51 | 197 | 3.5 | 7.8 | 0.00 | 0.08 | 0.01 | 78 | 1016.5 |
| 20260502051803 | 51 | 198 | 2.6 | 7.8 | 0.00 | 0.08 | 0.01 | 78 | 1016.5 |
| 20260502050903 | 51 | 186 | 2.6 | 7.0 | 0.00 | 0.08 | 0.01 | 78 | 1016.5 |
| 20260502050003 | 51 | 193 | 4.3 | 7.8 | 0.00 | 0.08 | 0.01 | 78 | 1016.4 |
| 20260502045424 | 51 | 202 | 4.3 | 7.8 | 0.00 | 0.08 | 0.01 | 78 | 1016.4 |
| 20260502044504 | 51 | 195 | 3.5 | 7.8 | 0.00 | 0.08 | 0.01 | 78 | 1016.5 |
| 20260502043603 | 51 | 198 | 4.3 | 9.6 | 0.00 | 0.08 | 0.01 | 78 | 1016.4 |
| 20260502042703 | 51 | 192 | 3.5 | 8.7 | 0.00 | 0.08 | 0.01 | 78 | 1016.4 |
| 20260502041803 | 51 | 190 | 3.5 | 7.0 | 0.00 | 0.08 | 0.01 | 78 | 1016.4 |
| 20260502040903 | 51 | 189 | 4.3 | 7.8 | 0.00 | 0.08 | 0.01 | 78 | 1016.6 |
| 20260502040024 | 51 | 198 | 3.5 | 8.7 | 0.00 | 0.08 | 0.01 | 78 | 1016.7 |
| 20260502035403 | 51 | 191 | 4.3 | 9.6 | 0.00 | 0.08 | 0.01 | 78 | 1016.7 |
| 20260502034503 | 51 | 182 | 4.3 | 11.3 | 0.00 | 0.08 | 0.01 | 78 | 1016.7 |
| 20260502033603 | 50 | 178 | 4.3 | 11.3 | 0.00 | 0.08 | 0.01 | 78 | 1016.9 |
| 20260502032724 | 50 | 185 | 6.1 | 11.3 | 0.00 | 0.08 | 0.01 | 78 | 1016.9 |
| 20260502031803 | 50 | 186 | 6.1 | 10.4 | 0.00 | 0.08 | 0.01 | 78 | 1016.9 |
| 20260502030903 | 50 | 177 | 5.2 | 10.4 | 0.00 | 0.08 | 0.01 | 78 | 1016.9 |
| 20260502030003 | 50 | 174 | 2.6 | 6.1 | 0.00 | 0.08 | 0.01 | 78 | 1016.9 |
| 20260502025403 | 49 | 166 | 1.7 | 5.2 | 0.00 | 0.08 | 0.01 | 78 | 1017.0 |
| 20260502024503 | 49 | 193 | 0.9 | 4.3 | 0.00 | 0.08 | 0.01 | 78 | 1016.9 |
| 20260502023624 | 49 | 213 | 0.9 | 1.7 | 0.00 | 0.08 | 0.01 | 78 | 1017.0 |
| 20260502022703 | 49 | 213 | 0.9 | 2.6 | 0.01 | 0.08 | 0.01 | 78 | 1017.0 |
| 20260502021803 | 50 | 213 | 0.9 | 3.5 | 0.01 | 0.08 | 0.01 | 78 | 1017.0 |
| 20260502020903 | 50 | 212 | 1.7 | 3.5 | 0.01 | 0.08 | 0.01 | 78 | 1017.2 |
| 20260502020003 | 50 | 214 | 1.7 | 4.3 | 0.01 | 0.08 | 0.01 | 78 | 1017.3 |
| 20260502015403 | 50 | 214 | 1.7 | 4.3 | 0.01 | 0.08 | 0.01 | 78 | 1017.5 |
| 20260502014524 | 50 | 210 | 1.7 | 4.3 | 0.01 | 0.08 | 0.01 | 78 | 1017.5 |
| 20260502013603 | 50 | 214 | 2.6 | 5.2 | 0.01 | 0.08 | 0.01 | 78 | 1017.5 |
| 20260502012703 | 50 | 214 | 2.6 | 5.2 | 0.00 | 0.07 | 0.00 | 78 | 1017.7 |
| 20260502011803 | 50 | 201 | 1.7 | 4.3 | 0.00 | 0.07 | 0.00 | 78 | 1017.8 |
| 20260502010903 | 51 | 196 | 0.0 | 2.6 | 0.00 | 0.07 | 0.00 | 77 | 1017.8 |